* Astronomy

Members Login
Username 
 
Password 
    Remember Me  
Post Info TOPIC: Asteroid 2015 XU378


L

Posts: 131433
Date:
Asteroid 2015 XU378
Permalink  
 


Orbital elements:
2015 XU378                                          PHA, Earth MOID = 0.0311 AU
Epoch 2016 Jan. 13.0 TT = JDT 2457400.5                 MPC
M   8.00622              (2000.0)            P               Q
n   0.35592476     Peri.    3.05507     -0.04401576     -0.91427774
a   1.9719561      Node    89.72648     +0.90784430     -0.20484873
e   0.4855286      Incl.   23.74671     +0.41699080     +0.34947563
P   2.77           H   21.1           G   0.15           U   5

MPEC 2015 - Y08



__________________
Page 1 of 1  sorted by
 
Quick Reply

Please log in to post quick replies.



Create your own FREE Forum
Report Abuse
Powered by ActiveBoard